* Astronomy

Members Login
Post Info
TOPIC: Asteroid 2009 FF


L

Posts: 131039
Date:
RE: Asteroid 2009 FF
Permalink  
 


The 120 - 260 metre wide asteroid 2009 FF will make a close pass (51.66 lunar distances, 0.13275 AU), travelling at 16.94 km/second, to the Earth on the 6th April 2018 @ 22:22 UT 00:01.

See more

The Lunar Distance (LD), the distance between Earth and the Moon, equals 384,401 km, (or 0.00256 AU).



__________________


L

Posts: 131039
Date:
Permalink  
 

Orbital elements:
2009 FF                                             PHA, Earth MOID = 0.0151 AU
Epoch 2016 Jan. 13.0 TT = JDT 2457400.5                 MPC
M 243.38872              (2000.0)            P               Q
n   0.55071342     Peri.   10.94316     +0.11997881     +0.99262909
a   1.4740728      Node   265.94932     -0.91214455     +0.10341635
e   0.4681723      Incl.    0.98254     -0.39191504     +0.06318665
P   1.79           H   21.8           G   0.15           U   3

MPEC 2016 - C12



__________________


L

Posts: 131039
Date:
Permalink  
 

The 120 - 270 metre wide asteroid 2009 FF will make a close pass (67.0 Lunar Distances, 0.1721 AU), travelling at 9.74 km/s, to the Earth-Moon system on the 15th May, 2009.

See more

The Lunar Distance (LD), the distance between Earth and the Moon, equals 384,401 km, (or 0.00256 AU).


__________________
Page 1 of 1  sorted by
 
Quick Reply

Please log in to post quick replies.



Create your own FREE Forum
Report Abuse
Powered by ActiveBoard